This is the latest recevied weather packets stored in our database for station/object N5TSS. If no packets are shown the sender has not sent any weather packets the latest 1 day(s).
| Time | Temp. | Humidity | Pressure | Rain* | Wind** | Luminosity | Snow |
|---|---|---|---|---|---|---|---|
| 1778006968 | 27.78° C | 74% | 1009.5 hPa | 0 mm | 2.68 m/s, 169° | - | - |
| 1778006665 | 27.22° C | 76% | 1009.5 hPa | 0 mm | 1.79 m/s, 169° | - | - |
| 1778006362 | 27.22° C | 76% | 1009.8 hPa | 0 mm | 3.58 m/s, 178° | - | - |
| 1778006059 | 27.22° C | 76% | 1009.8 hPa | 0 mm | 2.68 m/s, 180° | - | - |
| 1778005756 | 27.78° C | 75% | 1009.8 hPa | 0 mm | 2.24 m/s, 175° | - | - |
| 1778005452 | 27.78° C | 75% | 1009.8 hPa | 0 mm | 0.89 m/s, 171° | - | - |
| 1778005149 | 27.22° C | 76% | 1009.8 hPa | 0 mm | 2.68 m/s, 162° | - | - |
| 1778004846 | 27.22° C | 76% | 1009.8 hPa | 0 mm | 2.24 m/s, 156° | - | - |
| 1778004543 | 26.67° C | 76% | 1010.2 hPa | 0 mm | 3.13 m/s, 193° | - | - |
| 1778004239 | 26.67° C | 78% | 1010.2 hPa | 0 mm | 1.79 m/s, 167° | - | - |
| 1778003936 | 26.67° C | 77% | 1010.2 hPa | 0 mm | 1.79 m/s, 160° | - | - |
| 1778003632 | 26.67° C | 77% | 1010.2 hPa | 0 mm | 2.24 m/s, 224° | - | - |
| 1778003329 | 26.67° C | 76% | 1010.2 hPa | 0 mm | 2.24 m/s, 170° | - | - |
| 1778003027 | 27.22° C | 76% | 1010.2 hPa | 0 mm | 2.24 m/s, 149° | - | - |
| 1778002722 | 26.67° C | 77% | 1010.2 hPa | 0 mm | 1.34 m/s, 168° | - | - |
| 1778002419 | 26.67° C | 78% | 1010.2 hPa | 0 mm | 2.24 m/s, 188° | - | - |
| 1778002116 | 26.11° C | 77% | 1010.2 hPa | 0 mm | 2.24 m/s, 156° | - | - |
| 1778001814 | 26.67° C | 77% | 1010.2 hPa | 0 mm | 1.79 m/s, 153° | - | - |
| 1778001513 | 26.11° C | 79% | 1010.5 hPa | 0 mm | 1.34 m/s, 196° | - | - |
| 1778001211 | 26.11° C | 79% | 1010.5 hPa | 0 mm | 1.34 m/s, 196° | - | - |
| 1778000907 | 25.56° C | 80% | 1010.5 hPa | 0 mm | 2.24 m/s, 161° | - | - |
| 1778000604 | 25.56° C | 80% | 1010.5 hPa | 0 mm | 2.24 m/s, 201° | - | - |
| 1778000299 | 25.56° C | 80% | 1010.5 hPa | 0 mm | 2.24 m/s, 161° | - | - |
| 1777999995 | 25.56° C | 80% | 1010.5 hPa | 0 mm | 2.68 m/s, 175° | - | - |
| 1777999691 | 25.56° C | 79% | 1010.5 hPa | 0 mm | 1.79 m/s, 166° | - | - |
* Rain latest hour (hover to see other rain measurements)
** Current wind speed in m/s (hover to see current wind gust speed)